Location: Newark
(54.9144°N, 23.9094°E)
Time: 14:06:53
(UTC+00:00)

N. Korean satellite - Visible Passes

Search period start: 27 September 2020 00:00
Search period end: 07 October 2020 00:00
Orbit: 455 x 503 km, 97.2° (Epoch: 26 September)

Date Brightness Start Highest point End Pass type
(mag) Time Alt. Az. Time Alt. Az. Time Alt. Az.
27 Sep 10.0 02:53:16 10° NE 02:55:07 13° E 02:56:58 10° ESE visible
29 Sep 8.7 03:33:27 10° NNE 03:36:47 32° E 03:40:02 10° SSE visible
30 Sep 9.7 03:07:56 10° NE 03:10:32 18° E 03:13:06 10° SE visible
01 Oct 10.4 02:43:32 10° ENE 02:44:12 10° E 02:44:50 10° E visible
02 Oct 7.9 03:48:34 10° NNE 03:52:05 45° E 03:55:30 10° S visible
03 Oct 9.2 03:22:49 10° NE 03:25:53 25° E 03:28:52 10° SSE visible
04 Oct 9.9 02:57:31 10° NE 02:59:34 14° E 03:01:36 10° ESE visible
06 Oct 8.5 03:37:49 10° NNE 03:41:09 35° E 03:44:25 10° SSE visible
